Theta_e
303 302 302 307 312 314 314 315 315 315 315 315 315 315 315 316 317 317 319 319 320 320 319 320 321 322 322 323 325 329 331 334 335 335 336 335 330 329 332 332 329 338 338
301 301 301 307 311 312 313 313 314 314 314 314 315 314 314 315 316 316 316 316 317 318 320 321 320 321 322 321 322 323 330 330 333 333 335 335 336 330 333 331 331 335 339
301 301 302 308 310 310 311 312 312 313 314 314 313 314 314 313 314 315 315 315 315 315 317 318 320 320 320 322 320 321 322 328 330 332 333 334 333 333 330 328 327 328 333
302 302 302 308 308 309 310 311 311 312 314 313 313 312 312 312 312 313 312 312 314 314 315 316 316 317 318 319 321 320 320 323 329 330 332 333 334 333 333 333 329 327 325
302 302 301 303 307 308 309 309 311 313 313 312 311 311 310 311 310 310 310 310 312 313 313 314 314 315 316 318 319 319 319 319 323 329 327 329 332 334 333 333 333 333 332
301 300 300 302 304 306 306 307 308 309 309 308 309 309 307 308 309 307 308 308 309 309 311 313 313 314 314 316 318 317 319 319 318 322 325 327 328 332 334 333 332 333 333
300 300 299 299 301 301 301 305 306 307 306 307 306 305 305 305 305 304 305 306 307 307 309 310 313 312 313 314 314 314 316 318 316 316 320 324 326 329 331 333 333 332 333
299 298 299 301 299 298 297 299 304 304 304 305 304 304 304 304 302 304 303 305 305 305 306 308 309 311 312 312 313 314 315 315 315 314 314 319 324 326 328 331 333 332 334
299 300 300 298 298 297 296 298 301 302 303 303 302 302 302 301 298 300 301 303 305 305 304 304 307 307 309 310 310 311 312 314 315 314 315 312 319 322 325 328 331 333 334
300 299 298 298 297 296 296 296 297 298 299 299 298 298 298 297 297 297 299 301 303 305 304 304 303 304 305 306 307 307 308 311 314 315 314 313 312 317 321 324 328 331 334
299 297 297 297 297 296 296 296 297 297 298 298 297 297 296 295 296 296 297 299 300 301 302 301 302 302 302 302 303 305 307 308 310 311 312 312 311 311 315 320 326 330 331
297 297 297 296 296 296 296 297 297 297 297 297 296 296 295 295 295 295 296 295 296 297 298 297 298 298 297 298 298 300 304 305 306 308 309 310 311 311 313 313 323 329 330
297 297 297 296 296 296 296 296 297 297 296 296 295 294 294 294 294 294 293 293 294 294 295 296 296 297 296 297 297 298 300 302 303 304 305 307 308 310 310 310 317 325 326
297 297 297 296 296 296 296 296 296 296 295 294 294 294 293 293 292 292 292 292 292 293 294 295 296 296 296 296 297 297 298 299 301 302 302 302 303 305 308 311 316 324 325
297 297 297 296 296 296 296 296 295 295 294 294 293 293 292 292 292 292 292 292 293 293 293 294 294 295 296 296 296 297 298 298 299 301 302 302 302 302 305 309 313 323 323
297 297 296 296 296 296 296 295 295 294 294 293 293 292 292 291 292 292 292 292 292 292 292 293 294 295 295 296 296 296 297 298 298 300 301 302 302 302 302 308 313 323 321
297 297 296 296 296 296 296 295 295 294 294 293 293 293 292 292 292 292 293 293 293 293 293 293 293 293 294 296 296 296 297 298 298 298 300 301 302 302 302 304 314 320 319
297 297 295 296 296 296 295 295 294 294 293 293 293 293 293 292 292 293 293 293 293 294 293 293 293 293 293 295 295 296 296 297 298 298 299 301 302 302 301 302 310 317 317
296 296 296 296 296 296 295 295 294 294 294 293 293 293 293 292 293 293 294 294 294 294 294 293 294 294 294 295 297 295 296 297 297 298 298 300 301 302 302 302 309 314 315
296 295 296 296 296 296 295 295 294 294 293 293 292 292 292 292 293 294 295 295 294 293 294 294 293 293 294 295 296 296 296 297 297 297 298 299 301 302 301 301 305 312 311
296 296 296 296 296 295 295 295 295 294 293 293 292 292 292 293 294 295 295 295 295 294 294 294 295 293 294 296 296 296 297 297 298 299 298 299 301 302 301 301 302 308 310
295 295 296 296 296 295 295 294 294 294 293 293 292 292 292 293 295 295 296 296 296 295 294 294 293 293 295 296 296 296 297 298 298 299 299 300 301 302 301 302 302 306 307
295 295 296 296 296 295 295 294 294 293 293 293 293 292 292 292 295 295 295 296 294 295 294 294 294 295 296 296 297 296 297 297 297 298 299 300 301 302 302 301 303 306 307
295 295 296 296 296 295 295 294 293 293 293 292 292 292 292 292 295 295 295 295 296 295 296 296 297 296 297 297 297 297 297 297 297 297 299 300 301 301 302 301 304 307 308
295 295 296 296 295 295 294 293 293 293 293 292 292 292 292 292 294 295 295 295 295 295 296 297 297 297 297 297 297 297 297 297 297 297 297 299 300 301 302 301 302 306 308
295 296 296 296 295 295 294 293 293 293 293 293 293 292 292 292 293 294 294 295 295 296 296 297 297 297 297 296 297 297 297 297 296 297 297 298 299 301 301 302 301 302 304
Wind_Speed
7 11 13 12 14 16 17 19 20 20 21 20 21 19 16 16 16 15 16 16 16 17 17 17 17 18 18 18 16 12 10 7 13 12 9 13 16 15 14 11 11 10 10
10 12 14 13 14 16 17 19 19 19 20 20 20 18 18 17 17 17 17 17 16 15 15 15 16 18 19 19 19 17 15 10 10 15 13 13 13 16 15 14 12 14 14
9 12 15 14 15 17 19 19 19 20 19 18 19 17 17 17 17 18 18 17 17 15 14 16 16 15 17 18 20 21 17 17 10 11 16 18 17 16 16 17 16 17 17
11 13 14 14 17 19 20 19 19 19 17 18 18 18 18 18 17 18 17 16 17 17 17 17 18 17 16 18 20 21 21 19 19 12 14 20 19 18 18 16 16 16 17
11 12 14 19 19 20 19 19 17 16 16 16 18 18 18 18 18 18 19 18 18 18 16 16 17 17 17 17 19 21 23 23 22 20 19 15 22 20 20 20 17 18 18
13 18 20 21 20 19 20 19 16 16 17 17 17 18 19 19 20 20 19 20 19 19 17 18 18 16 17 18 19 19 21 23 24 27 23 21 21 23 21 22 22 21 22
18 22 25 24 20 20 20 17 17 16 17 16 16 18 20 19 19 19 19 19 18 18 18 18 18 17 18 19 19 21 22 22 26 28 28 27 26 25 23 23 23 23 21
22 24 22 20 21 22 21 17 14 14 15 15 16 18 19 19 20 20 20 19 18 18 18 19 19 17 17 17 17 19 21 24 23 28 31 31 32 28 26 24 25 25 23
19 19 19 21 22 22 19 15 15 14 13 12 14 17 19 20 24 23 20 19 20 19 19 18 20 18 19 18 19 22 16 18 23 26 27 31 34 35 31 27 25 25 24
17 17 19 20 21 20 18 16 13 11 12 13 15 18 22 25 25 23 19 19 21 21 19 20 19 19 20 21 25 23 27 24 23 27 29 31 36 37 37 30 28 24 23
17 17 18 20 20 19 18 17 14 15 17 18 20 23 25 25 23 22 20 21 22 21 20 20 19 19 19 23 31 29 24 26 28 29 32 31 35 36 31 32 30 26 25
17 18 18 20 19 18 18 17 16 17 18 19 21 24 25 24 23 22 23 23 23 22 20 22 21 20 21 24 24 23 27 26 28 31 31 32 33 30 29 32 35 30 26
17 16 19 20 19 20 18 17 17 19 20 21 23 24 25 24 24 25 27 28 27 26 25 24 22 22 23 23 22 23 27 29 28 27 29 32 35 30 24 29 33 26 23
16 17 19 19 19 18 17 17 18 19 21 22 23 25 26 26 26 26 27 28 27 25 26 26 24 25 23 22 22 23 23 28 28 27 24 22 26 30 20 21 22 25 22
15 17 19 19 18 18 17 19 18 20 23 23 23 24 24 26 26 26 26 27 27 25 26 27 25 25 25 23 24 24 23 22 28 28 27 24 23 25 20 18 24 22 22
15 17 18 17 17 19 17 19 19 21 23 22 21 21 24 23 23 24 26 27 26 26 24 25 27 25 24 23 23 24 24 22 22 28 29 26 24 25 25 19 17 21 20
16 17 17 15 17 17 18 17 18 19 21 23 22 22 25 24 24 23 24 24 25 25 23 24 27 23 25 22 23 23 25 21 21 21 28 27 23 24 26 22 17 17 20
15 17 15 14 16 16 17 17 18 19 22 24 23 22 23 24 22 23 23 24 25 25 25 25 24 23 24 23 26 23 24 25 20 21 24 27 21 21 26 24 22 15 21
16 15 13 14 16 16 17 17 17 19 23 23 21 20 21 22 21 22 24 26 26 26 24 23 25 23 20 21 23 21 22 24 23 21 21 27 21 16 21 24 26 20 17
13 12 11 14 15 16 18 17 17 20 24 19 19 20 20 21 21 23 25 25 24 23 20 22 23 20 19 19 21 22 21 21 20 18 19 23 21 15 16 23 26 28 18
10 10 11 14 15 18 20 21 21 24 20 21 21 20 19 20 22 23 24 25 24 21 20 21 19 22 19 21 18 21 19 16 8 15 16 18 20 14 14 19 22 24 23
9 10 11 13 15 17 20 20 21 23 20 20 21 21 18 21 23 24 25 26 24 21 18 17 19 16 18 16 19 20 10 10 12 11 2 11 16 11 14 13 21 21 23
10 10 11 13 15 17 18 19 20 19 21 23 21 22 22 22 23 22 25 26 20 17 16 14 14 14 19 16 18 12 6 3 20 11 12 5 9 11 12 11 18 19 23
10 10 10 12 15 17 17 18 21 18 23 22 20 22 22 22 23 20 23 24 25 21 19 17 18 16 18 18 20 8 8 9 5 9 9 9 6 6 9 13 10 17 20
9 9 10 12 14 15 17 18 18 18 19 18 19 23 24 21 22 20 23 19 24 17 18 18 17 14 14 16 15 7 6 6 4 5 6 10 11 8 7 11 10 12 17
7 7 10 12 14 14 16 18 15 17 18 18 22 24 26 22 21 23 22 20 21 20 19 16 16 15 15 13 11 10 9 5 7 6 8 10 5 17 15 7 13 11 11
Wind_Direction
333 333 328 348 349 350 348 345 343 343 342 342 339 335 334 332 330 321 323 316 313 311 310 306 306 308 307 307 311 269 277 280 289 263 268 263 257 259 262 262 253 249 235
331 326 328 348 348 347 345 344 343 342 342 342 335 342 344 342 339 333 325 317 310 310 304 300 299 297 300 301 304 299 258 263 264 275 262 251 250 246 248 254 251 242 243
311 317 328 349 347 346 345 343 340 341 341 331 339 346 345 344 345 339 335 329 317 305 304 299 302 286 288 297 294 300 278 253 261 270 275 256 243 239 245 249 249 247 247
307 314 322 348 344 342 342 341 340 343 333 336 342 340 339 345 342 338 333 328 333 325 317 307 292 274 287 287 291 291 293 268 247 250 288 263 249 239 236 244 247 244 246
302 311 322 330 341 342 341 340 340 339 341 341 340 339 346 343 340 336 335 329 326 321 320 317 306 299 287 288 279 279 286 288 258 245 273 270 250 246 238 231 235 241 248
312 318 324 329 336 344 344 345 346 337 334 334 340 341 343 342 341 336 337 337 333 327 318 322 316 306 294 288 289 283 278 285 287 257 259 256 254 246 243 240 235 236 244
316 315 316 321 328 334 343 348 345 342 343 346 342 342 350 344 342 346 336 340 337 333 326 315 320 315 304 298 289 271 271 280 278 275 257 255 253 246 248 244 242 237 243
322 321 324 330 335 337 340 349 352 344 346 345 344 347 348 342 344 343 341 335 337 333 329 325 311 315 317 289 291 284 280 275 267 270 262 257 247 250 248 248 245 239 240
328 328 333 338 340 342 350 360 0 5 358 354 345 343 344 336 333 331 335 331 333 330 324 324 326 305 304 304 305 268 278 263 261 265 266 258 250 246 247 248 247 244 242
338 336 339 343 344 350 355 356 353 357 352 344 343 340 333 332 331 331 331 340 330 326 321 324 316 318 301 297 289 275 262 257 252 250 253 256 253 250 247 248 246 249 244
346 344 345 344 348 352 352 352 350 347 347 345 340 335 334 331 331 328 326 330 326 320 322 321 321 313 308 282 263 265 264 259 259 256 255 260 255 255 262 248 242 241 243
349 349 347 347 350 349 346 349 348 345 343 340 338 334 335 336 334 326 321 322 323 322 311 316 316 314 305 299 296 268 258 259 256 259 257 256 259 265 268 249 240 236 243
353 350 350 351 348 347 349 354 346 343 341 342 340 338 335 332 328 324 322 322 320 319 316 311 313 315 314 304 297 290 268 263 260 260 258 257 259 260 268 254 239 238 250
354 355 353 351 347 354 358 354 349 345 345 342 340 336 336 334 330 327 326 326 324 320 315 314 312 311 309 310 297 292 282 267 259 255 252 253 251 251 270 259 251 229 242
351 354 352 350 351 355 351 352 353 351 347 344 343 342 339 337 334 331 330 328 327 322 317 313 313 308 308 309 302 295 283 281 263 254 252 251 252 245 259 267 248 224 236
351 350 351 349 350 351 352 354 357 354 360 359 358 355 351 346 340 339 338 339 340 335 328 326 320 316 314 313 307 301 293 279 276 258 251 251 250 250 247 249 250 234 229
348 350 347 351 350 354 357 357 356 358 1 4 3 360 2 360 352 345 342 340 339 334 327 316 319 318 309 301 304 303 298 283 278 271 252 251 252 249 243 243 219 231 226
347 349 350 351 353 359 360 358 359 0 1 358 357 357 357 355 349 343 338 335 330 325 321 317 318 313 314 302 301 304 295 290 276 275 260 247 249 249 243 238 227 220 225
345 347 351 355 357 359 359 359 360 1 359 352 352 353 353 348 344 339 335 330 325 319 317 323 316 318 314 309 319 301 299 291 292 280 268 244 242 241 239 233 220 217 220
343 352 357 359 358 359 357 358 359 359 355 360 1 358 355 352 343 337 337 335 329 321 326 325 326 321 316 306 308 306 305 294 298 283 269 239 231 229 223 227 218 216 216
343 355 359 1 1 358 357 357 357 360 0 5 6 1 358 352 347 344 345 342 342 337 331 318 322 325 321 334 321 318 313 314 288 317 270 226 224 220 211 219 214 211 209
355 357 359 0 1 360 359 0 359 355 7 7 5 4 359 354 358 1 0 356 351 342 332 332 321 315 324 325 313 313 312 341 346 23 282 208 214 218 213 210 211 212 204
0 1 2 359 360 358 360 358 354 2 6 3 5 6 5 359 3 9 10 4 353 353 348 335 335 329 335 333 329 300 307 307 327 341 71 126 214 222 211 210 208 204 204
5 3 1 357 359 356 360 1 0 9 4 4 6 5 3 5 11 15 8 8 11 13 16 8 358 342 338 336 328 325 300 288 323 332 20 110 139 215 210 211 195 194 198
2 5 0 357 358 356 359 0 7 12 8 11 8 8 5 11 18 17 11 10 6 6 4 5 359 352 348 346 350 341 354 4 9 311 340 31 107 110 197 206 194 189 193
5 3 356 357 357 359 1 1 11 14 11 10 10 8 7 10 12 17 10 2 357 7 4 10 3 3 11 5 359 6 354 322 346 354 358 4 93 90 80 181 207 194 193